CZ-6A DEB, 61104

Orbit data source: Space-Track

CZ-6A DEB, 61104 is space debris in LEO originally from a launch on Tue, 06 Aug 2024 UTC launched from the Taiyaun Space Center, China (TSC). Debris objects in space refer to the collection of defunct objects orbiting the Earth. Examples of debris include non-operational satellites, rocket bodies, and fragments generated from explosions, collisions, or faulty payload assembly.

Loading next visibility...
Identifier
61104, 2024-140NW
Orbit
LEO
Country
Flag of CNCN / PRC
Related business
Manufacturer
SAST
Mission
Spacecraft
Bus & Motor
Unknown
Mass
Unknown
Launch date (UTC)
2024-08-06 (2 years ago)
Launch vehicle
Unknown
Launch site
Taiyaun Space Center, China (TSC)
Object type
Payload
Rocket body
Debris
Shape & HBR
Unknown shape, 0.2 m
Radar Cross Section
Small (<0.1 m²)

Expand to show TLE details & history
Last TLE update: 5 hours ago

TLE from 5 hours ago
0 CZ-6A DEB
1 61104U 24140NW  26118.84835383  .00000306  00000-0  13616-3 0  9992
2 61104  88.9977 280.4234 0045934 318.3838  41.3859 14.20010662 86415
Epoch: 2026-04-28T20:21Z
TLE epoch observation values (Epoch: 2026-04-28T20:21:37.770Z)
Latitude
-0.00006°
Longitude
118.19825°
Altitude
803.606 km
Speed
7.464 km/s
True Right ascension
18h 41m 41s
True Declination
0° 00' 00"
Sunlit
Object was in daylight at epoch
Visualization orbit readout
Latitude
Unknown
Longitude
Unknown
Altitude
Unknown
Speed
Unknown
Apparent Right ascension
Unknown
Apparent Declination
Unknown
Sunlit
N/A
Visualization observer readout
Local Sidereal Time
08:22:07
Azimuth
Unknown
Elevation
Unknown
Doppler factor
Unknown
Orbital elements
Apogee altitude
855.342 km
Perigee altitude
789.194 km
Semi-major axis
7,200.405 km
Eccentricity
0.00459
Inclination
88.9977°
RAAN
280.4234°
Arg. of periapsis
318.3838°
True anomaly
41.7354°
Mean anomaly
41.3859°
Eccentric anomaly
41.5605°
Mean motion
3.55228 °/min
Orbital period
101.34 mins
BSTAR
0.00013616
Loading maneuver chart data...
Computing Atmospheric mass density...
Loading historical data...
Loading historical data...
Loading historical data...
Loading historical data...
Loading historical data...
Loading historical data...
Loading historical data...

Documentation

Showing up to 5 results
|